Wind_Speed
11 12 14 14 14 15 15 9 9 10 13 16 19 19 18 17 15 15 14 14 14 13 13 12 11 10 9 8 7 5 5 5 4 5 5 5 5 5 5 5 5 5 6 7 7 8 8 8 7 6 5 5 5 5 5 5 5 5 5 6 7 7 7 8 9 11 12 12 13 14 14 14 14 15 15 16 16 17 17 18 18 17 17 17 17
9 9 13 14 13 15 14 7 12 11 13 19 21 20 21 20 17 16 15 15 14 13 13 13 11 11 9 8 7 5 5 4 4 3 4 4 4 4 5 5 6 6 7 8 8 9 10 11 11 11 11 10 9 9 9 9 9 8 9 9 9 10 10 10 10 12 14 15 15 16 16 16 16 17 17 17 17 17 18 19 19 20 20 20 19
9 9 12 15 14 12 10 8 13 12 14 22 23 22 23 22 20 19 16 15 15 15 15 14 13 12 12 10 9 8 8 7 5 2 1 1 4 5 7 8 8 9 10 10 10 10 10 11 13 14 14 14 14 13 13 12 12 12 12 12 12 12 12 13 13 14 16 17 17 17 17 18 18 18 18 18 18 18 18 19 20 21 22 22 22
9 8 11 15 16 13 8 9 13 14 18 25 26 24 25 24 22 21 19 18 17 17 17 16 15 14 13 13 12 12 12 12 9 7 5 3 5 8 9 11 12 12 12 12 12 12 12 12 13 14 15 15 15 16 16 16 16 16 16 16 16 16 16 16 17 17 18 18 19 19 19 20 20 20 19 19 19 19 20 20 20 21 22 23 23
10 9 10 14 17 16 11 11 15 17 19 23 25 26 27 26 25 23 21 20 20 19 19 19 18 17 16 16 15 15 15 15 13 12 9 6 6 9 11 12 13 14 14 13 12 13 13 13 13 14 16 16 17 17 18 19 19 18 18 18 18 18 19 19 20 20 20 20 21 21 21 22 23 23 22 21 20 20 20 21 21 21 22 23 24
13 12 12 15 16 16 14 13 17 20 21 20 22 28 30 28 28 28 26 24 23 22 22 23 22 21 20 20 19 18 18 17 15 14 11 8 7 9 11 13 15 15 15 15 14 14 14 14 14 14 15 16 17 18 19 19 19 19 19 20 21 21 21 22 22 23 23 23 23 23 23 24 24 25 24 24 23 22 21 21 22 22 22 23 24
16 16 16 16 17 17 16 16 18 20 21 21 23 29 32 31 32 31 28 27 28 29 29 28 28 27 26 26 24 21 19 17 14 12 10 8 8 9 12 14 16 16 16 15 15 16 17 16 14 14 13 14 16 17 19 20 21 22 23 23 23 23 24 24 25 26 26 26 25 25 25 25 25 26 26 26 26 26 25 23 22 22 23 23 23
19 18 18 18 18 18 17 18 20 20 21 24 26 28 31 34 35 32 30 30 31 32 33 33 33 33 31 31 27 21 18 16 12 11 10 9 9 10 12 15 15 15 14 13 13 15 18 19 17 15 14 14 16 18 20 21 23 24 26 27 27 27 27 27 27 27 28 29 29 29 29 29 28 28 28 28 28 29 29 28 26 25 24 24 25
20 20 19 19 18 19 19 20 22 22 24 28 29 28 28 32 33 32 32 33 32 35 38 38 37 36 34 33 27 17 14 15 13 12 11 10 10 11 12 13 13 13 13 13 12 12 15 18 19 20 19 19 20 21 22 23 24 26 28 29 30 31 31 30 30 30 30 31 31 31 31 32 31 31 30 30 30 30 31 31 31 30 29 28 27
21 21 20 19 19 20 21 22 24 25 26 26 27 28 27 27 27 27 28 29 29 32 33 34 32 30 30 29 20 9 7 10 11 11 9 10 11 13 14 14 14 13 13 14 13 13 14 15 17 19 22 24 25 26 26 26 27 28 30 30 30 31 33 33 33 32 32 32 32 32 32 33 34 34 33 33 33 33 34 34 34 34 33 32 30
21 21 21 19 19 20 22 24 26 27 26 23 23 26 25 21 19 20 20 20 20 18 16 16 17 15 13 13 9 5 5 7 8 9 10 12 13 14 15 15 15 16 16 16 17 17 18 18 19 20 22 24 27 28 29 29 29 31 32 31 31 33 34 35 34 33 33 34 34 34 34 34 35 35 36 36 36 36 37 37 37 37 37 36 34
20 20 20 19 19 19 20 22 25 27 27 25 26 27 24 18 16 16 15 14 13 12 11 12 12 9 7 8 8 7 8 9 11 12 12 13 14 14 15 16 17 18 20 21 22 22 22 22 23 24 25 26 28 29 31 31 32 33 33 33 34 35 36 35 34 34 37 38 36 35 35 35 36 37 38 38 38 38 39 39 39 39 38 39 38
18 19 19 19 19 19 19 19 22 25 27 26 27 26 21 17 16 17 16 14 12 12 15 16 14 12 12 12 10 10 11 13 13 14 14 15 15 16 17 19 21 23 24 26 27 27 28 27 26 26 26 27 28 29 30 31 32 33 33 34 35 35 34 35 35 37 40 41 37 36 36 37 38 39 39 39 39 39 40 39 39 39 39 39 40
20 19 19 20 20 20 21 21 21 22 22 22 23 24 21 19 19 19 18 17 15 15 16 17 15 15 16 14 13 14 14 14 15 15 16 16 18 19 21 23 24 25 26 27 28 29 30 30 29 28 28 28 28 29 29 30 30 32 33 33 33 33 33 33 35 39 42 40 37 36 38 38 39 39 40 40 41 41 42 41 41 41 41 41 40
23 21 20 21 21 22 23 24 24 24 22 21 21 22 21 20 19 19 19 17 17 17 17 16 15 17 17 16 16 17 17 17 17 17 18 19 21 22 22 23 23 24 24 25 27 28 29 29 29 29 29 29 29 29 30 31 31 32 32 33 34 34 34 35 37 40 42 41 38 38 39 39 39 40 41 42 43 43 44 44 43 44 44 42 40
25 23 22 22 23 24 25 25 26 26 24 23 22 21 20 20 21 20 19 19 18 18 18 17 17 18 18 17 18 18 19 19 18 19 20 21 22 22 23 23 23 24 25 25 26 27 27 28 28 29 29 29 28 29 29 30 30 31 31 32 33 34 35 37 38 40 41 41 40 40 41 41 41 42 43 44 45 45 45 45 44 44 45 44 42
27 26 25 25 26 27 27 27 28 27 25 23 23 22 22 22 22 22 21 20 20 19 18 18 19 19 19 19 20 20 20 20 19 20 22 23 23 24 24 25 25 25 25 26 26 27 27 28 28 28 29 29 29 29 29 29 29 30 31 32 33 34 36 37 38 39 40 41 42 42 42 42 43 43 44 45 45 46 46 45 44 44 44 45 44
28 27 27 28 29 29 29 28 28 27 25 23 22 22 22 22 22 23 22 22 22 20 19 20 21 21 21 22 22 22 21 21 21 21 23 24 24 25 26 26 26 26 26 26 27 28 28 29 30 30 30 30 30 30 30 31 32 32 33 34 35 36 37 38 38 39 40 41 41 41 42 42 43 43 44 44 45 45 45 45 45 45 45 46 46
29 28 28 28 29 29 29 29 28 28 27 25 23 22 22 23 24 25 25 25 23 21 20 21 21 22 23 23 23 22 21 21 22 23 24 25 26 27 27 28 28 28 28 28 28 29 29 30 31 31 31 31 31 31 31 31 32 33 34 35 36 37 38 38 39 39 40 41 41 42 43 43 44 44 44 44 44 44 44 45 45 46 46 46 46
27 27 28 29 28 28 29 31 31 29 27 25 23 22 23 23 23 24 24 24 23 22 21 21 22 22 23 23 23 22 22 23 24 25 27 28 28 28 28 29 29 30 30 30 30 30 30 31 31 31 32 32 32 31 32 32 33 33 34 35 36 37 38 39 39 40 41 41 42 43 44 44 44 44 43 43 42 43 43 44 45 45 46 47 47
25 24 26 28 27 26 27 29 31 31 30 27 25 25 25 24 24 24 24 23 23 23 23 23 23 25 26 26 25 25 25 26 27 28 28 28 28 29 29 30 31 31 31 31 31 31 32 32 32 32 33 33 32 32 33 33 34 35 36 37 38 39 40 40 40 41 42 42 43 44 44 44 43 42 41 41 41 42 42 43 44 45 46 47 47
27 26 26 26 27 26 26 27 29 31 32 31 30 30 29 28 27 27 27 27 26 26 26 27 28 29 29 29 28 28 28 28 28 28 29 29 30 31 31 32 32 31 31 31 31 32 33 34 34 34 34 34 34 34 35 35 36 37 38 39 40 41 41 41 42 42 43 43 43 43 43 42 41 41 41 41 42 42 43 44 44 45 46 47 47
32 31 29 28 28 28 28 28 28 30 31 33 34 34 33 32 32 31 30 29 29 29 29 30 31 31 30 29 28 28 28 28 28 29 30 30 31 32 32 32 31 30 30 31 32 33 34 35 36 36 36 37 37 37 38 38 39 40 41 41 41 41 41 41 41 42 42 42 42 42 42 41 41 41 42 42 43 44 44 45 45 45 46 46 47
37 36 34 32 31 31 31 31 32 32 32 33 35 36 36 36 35 34 32 32 32 32 32 32 32 31 29 28 28 27 27 28 29 29 30 31 31 31 31 31 30 30 31 32 32 33 34 35 36 37 38 39 39 40 40 41 41 42 42 42 41 41 40 40 40 40 40 40 41 41 41 41 42 42 43 43 44 44 44 45 45 45 45 46 46
44 43 40 39 37 36 36 36 35 35 34 34 35 38 39 40 40 39 37 35 35 35 35 34 33 32 31 30 30 29 29 29 29 30 30 30 30 30 30 30 31 31 32 32 32 33 34 35 36 38 39 40 41 41 41 41 41 41 41 40 39 39 38 38 38 38 38 39 40 40 40 41 41 42 43 43 44 44 44 44 44 45 45 46 47
50 48 47 45 44 43 42 40 39 38 37 37 38 39 41 42 43 43 41 40 38 37 36 35 33 32 32 31 30 30 30 30 30 30 30 29 29 29 29 30 31 31 32 32 32 33 34 36 37 39 39 39 39 39 39 39 38 37 37 36 35 35 34 34 35 36 37 38 39 39 40 40 41 42 42 43 43 43 44 45 45 46 46 47 48
50 49 49 48 47 47 46 44 42 41 40 41 42 43 43 43 43 42 41 40 38 36 35 35 34 32 31 30 28 28 29 29 30 30 29 29 29 30 31 31 32 32 32 33 33 34 35 36 36 36 37 36 36 35 35 34 33 33 32 32 31 31 31 32 33 35 36 37 37 38 39 40 40 41 42 42 43 44 45 46 47 47 48 48 49
47 47 46 46 47 47 47 46 44 44 43 44 45 45 45 45 45 45 42 40 38 36 35 34 33 31 30 27 26 26 27 27 28 29 30 30 31 32 33 32 32 32 33 33 34 34 34 34 34 33 33 32 32 32 31 31 30 29 28 28 28 29 30 31 32 33 35 36 37 38 38 39 40 41 42 43 44 45 45 46 47 47 47 47 47
46 45 44 44 43 45 46 47 47 46 46 46 46 46 46 45 45 44 44 42 39 37 36 35 32 29 28 26 26 26 28 29 30 32 32 32 32 32 32 32 32 32 32 32 32 32 32 31 31 31 30 30 30 29 28 27 26 25 25 25 26 27 28 30 31 33 34 35 36 37 38 40 41 42 43 44 44 43 44 44 44 44 44 43 43
46 45 44 43 42 42 43 45 48 49 49 48 48 48 48 46 45 43 42 41 39 37 37 35 30 27 27 27 27 28 30 32 34 34 33 31 31 32 32 32 32 32 31 30 30 30 30 30 30 30 29 28 26 25 23 22 22 22 23 24 25 26 28 30 31 32 33 34 36 37 39 41 41 42 42 42 42 41 41 41 40 40 39 37 34
45 44 43 42 42 41 41 41 44 47 49 49 49 49 49 48 47 45 44 43 42 42 42 37 29 26 27 28 28 29 32 34 34 33 31 30 31 32 33 33 33 31 30 29 29 29 29 29 30 28 26 23 20 19 19 19 19 20 22 23 25 26 28 29 30 31 33 34 36 37 39 40 40 41 40 40 40 39 37 36 35 33 30 27 25
45 44 42 41 41 41 41 40 41 43 44 46 47 48 49 48 47 46 45 45 44 43 40 35 29 28 28 28 28 30 32 33 33 32 31 32 32 33 33 32 31 30 28 28 28 28 28 26 25 22 19 17 16 17 17 18 19 20 21 23 24 25 26 27 29 31 33 35 36 36 37 38 39 39 38 37 36 34 31 29 26 23 21 20 21
45 44 43 42 41 41 41 41 41 41 42 42 43 44 45 46 46 45 45 45 45 42 37 32 30 30 30 28 28 30 31 32 31 31 31 32 31 31 30 29 28 27 27 27 27 25 22 19 17 16 15 15 16 16 17 18 19 20 21 21 22 23 25 27 29 31 32 34 34 35 36 36 36 35 33 31 29 27 24 20 18 17 18 18 19
44 44 44 43 41 41 41 41 41 41 42 42 41 40 40 40 41 42 41 41 41 41 37 35 34 32 27 25 26 28 29 29 29 29 29 29 28 27 27 26 26 26 26 26 24 21 18 15 14 14 15 15 16 16 17 18 18 19 19 20 22 23 25 27 28 30 31 32 33 34 35 34 33 30 27 24 22 20 17 15 16 17 17 17 18
42 43 43 42 42 41 41 41 41 41 42 43 43 41 40 39 39 40 39 38 37 36 34 32 30 26 22 20 22 25 26 27 27 27 27 26 26 25 24 24 24 24 24 22 20 17 15 13 13 14 14 15 16 16 16 16 16 17 18 20 21 23 24 26 27 28 30 31 33 34 33 31 29 26 23 20 18 15 14 15 15 15 15 16 19
40 41 41 41 41 40 40 41 41 41 41 43 44 43 42 41 40 39 38 37 35 32 30 29 27 24 21 21 22 24 25 26 26 26 26 26 25 25 23 22 23 23 21 19 16 14 13 13 13 14 14 14 14 14 14 14 15 16 18 19 20 22 23 24 25 27 30 32 33 33 31 28 25 22 20 18 15 14 14 15 14 14 15 18 21
35 37 39 39 39 39 38 39 39 40 40 41 43 45 45 44 43 41 39 37 34 29 25 25 25 23 21 21 23 24 25 26 26 25 25 25 24 23 22 22 22 21 19 16 14 13 14 13 13 13 13 13 12 12 12 13 15 16 17 18 20 21 22 23 25 28 30 31 32 31 29 26 22 20 18 16 15 15 15 15 16 16 17 19 22
29 31 32 34 36 37 37 37 37 38 39 39 41 44 46 46 45 43 40 37 35 33 31 29 26 23 22 22 24 25 26 26 25 25 25 23 21 20 20 20 20 19 16 14 14 14 13 13 12 12 11 10 10 10 12 13 14 15 16 17 18 20 21 22 24 27 29 30 31 30 27 23 20 19 18 17 17 17 17 18 18 18 18 20 21
24 25 26 28 30 32 33 35 35 35 36 37 38 40 43 45 46 45 41 35 30 29 30 30 27 24 23 24 25 26 25 25 25 23 22 20 19 19 19 18 17 16 15 15 14 13 11 11 11 9 8 8 9 10 11 12 13 13 14 15 17 19 20 21 22 25 27 29 30 29 26 22 20 18 18 18 18 18 19 18 18 18 18 18 18
17 18 20 22 24 26 28 30 32 33 34 35 35 37 38 40 41 42 43 41 36 31 28 25 23 22 22 24 24 24 23 22 21 20 20 19 19 18 17 16 15 16 15 14 13 11 10 9 8 6 7 7 8 9 10 10 11 12 13 15 17 18 20 21 21 23 26 28 28 27 25 22 19 18 17 17 18 19 19 18 18 17 17 16 16
12 14 16 17 19 21 22 24 26 29 31 32 32 33 33 33 33 34 35 38 38 35 30 25 22 21 22 22 23 22 21 19 18 19 20 20 18 16 15 15 16 15 13 12 10 9 8 6 5 5 6 6 6 8 8 8 9 11 13 15 16 18 19 20 20 22 24 27 28 26 24 22 20 18 17 17 18 19 19 19 18 16 15 15 16
8 9 11 13 17 18 17 17 19 22 25 26 27 27 27 27 27 28 28 30 30 30 28 25 21 21 22 22 21 21 21 20 21 21 21 19 17 15 15 15 14 12 10 9 8 6 4 3 4 5 5 5 5 6 7 7 9 11 13 14 16 17 18 19 20 21 22 25 26 26 24 22 21 19 18 18 18 19 19 18 16 15 14 15 17
8 4 4 8 13 14 12 12 14 17 19 21 22 22 23 23 23 23 25 28 28 26 24 23 21 20 21 21 20 21 21 22 23 23 21 18 16 14 13 12 11 9 8 7 5 4 2 3 5 5 3 3 5 5 6 7 9 10 12 14 15 17 18 19 20 20 21 22 24 25 25 23 22 20 19 18 18 18 18 16 14 13 13 15 17
13 11 9 4 7 10 10 9 11 13 14 16 18 19 20 20 19 17 20 26 30 27 23 21 20 20 19 19 19 20 20 20 20 20 18 15 13 11 10 9 8 6 5 5 4 3 4 5 5 3 2 3 4 5 6 7 9 10 12 14 15 17 18 19 20 21 21 21 22 24 24 24 23 22 21 19 18 17 16 15 14 12 13 14 16
15 15 14 12 10 9 9 9 10 11 12 13 15 17 17 17 17 15 14 18 25 26 22 20 20 19 18 18 19 17 16 15 15 15 14 12 10 9 9 8 7 5 5 5 4 4 6 6 4 1 1 3 4 5 7 8 10 11 12 14 15 17 18 19 20 21 22 22 22 23 24 25 25 24 23 21 20 17 16 16 15 13 12 13 15
17 16 14 13 12 10 10 11 11 12 12 13 14 16 16 16 16 14 12 13 18 20 18 18 19 18 18 17 16 15 14 14 14 13 11 9 8 8 8 8 7 6 6 5 5 6 7 5 1 0 2 4 5 6 8 9 11 12 13 15 16 17 18 19 20 21 22 23 23 23 23 24 25 25 24 23 22 19 16 16 16 14 12 12 14
17 17 16 15 15 14 13 12 11 11 12 13 15 17 18 17 16 15 15 15 15 15 15 16 17 16 15 15 15 15 15 15 13 11 9 8 8 8 8 8 7 7 6 6 7 7 5 2 0 1 3 4 5 7 8 10 11 12 14 15 17 18 19 19 20 21 22 23 24 24 23 23 24 25 25 24 23 21 19 16 15 14 13 13 13
19 17 15 14 14 13 13 13 12 12 13 14 15 17 18 18 17 16 15 14 14 14 15 17 17 15 15 16 16 16 15 13 11 10 9 9 9 9 9 8 8 7 6 7 7 6 3 1 1 2 3 5 6 7 9 10 11 13 14 15 17 18 19 19 20 20 22 23 24 24 24 24 24 25 26 26 24 23 22 19 16 14 13 13 13
24 22 19 17 15 14 13 13 13 14 14 15 16 17 17 16 15 15 15 15 16 17 17 17 17 16 15 15 15 14 13 12 11 10 10 10 10 10 9 8 7 7 7 7 6 3 1 0 1 3 4 5 6 7 9 10 11 12 14 15 16 18 19 20 20 21 22 23 24 25 25 25 24 25 26 27 26 25 23 22 19 16 14 13 12
23 23 22 21 20 19 18 17 17 17 18 18 19 19 18 17 17 18 18 18 18 18 16 15 15 14 13 13 13 12 12 11 10 10 10 10 10 10 9 8 7 7 6 5 3 2 1 1 2 4 5 6 7 8 9 10 11 12 13 14 15 17 18 19 20 21 22 23 24 24 25 25 25 25 26 27 27 26 24 22 21 19 16 13 12
19 19 19 19 19 19 19 18 18 19 19 19 19 19 19 18 18 17 16 16 15 15 15 14 14 13 12 11 11 11 10 10 10 10 10 10 10 9 8 7 6 5 4 3 2 1 2 3 4 5 6 7 7 8 9 10 11 12 12 13 14 15 17 18 20 21 22 23 24 24 25 26 26 26 26 26 27 26 25 23 22 21 19 16 13
Wind_Direction
297 310 309 302 299 292 280 248 189 207 227 200 183 184 178 175 179 177 175 172 166 164 162 159 159 158 154 150 143 128 112 102 88 79 69 58 52 41 27 18 7 359 355 347 338 329 319 309 300 294 288 282 281 280 278 274 271 273 277 284 291 293 296 302 305 307 310 312 314 315 316 317 316 316 315 313 309 307 305 304 302 298 294 290 286
296 306 306 302 291 287 288 237 183 202 227 207 191 189 186 182 184 188 190 189 186 185 184 182 181 181 179 173 163 153 141 131 122 104 73 41 18 1 348 337 328 323 318 315 316 316 313 308 301 296 293 289 286 282 279 278 278 280 282 284 286 289 291 293 293 294 297 300 303 304 305 306 307 308 309 309 308 306 304 302 300 299 297 295 292
297 301 303 304 296 283 278 231 193 194 212 207 198 196 195 190 189 195 202 206 205 203 204 203 201 200 197 190 179 168 159 152 154 166 150 339 316 310 308 306 304 303 301 298 296 295 297 299 296 293 290 288 287 285 282 282 283 285 286 285 285 286 287 288 287 287 288 290 293 295 297 299 299 299 299 299 298 299 299 299 299 298 297 296 296
290 294 297 299 297 288 270 230 211 205 208 208 204 201 202 200 197 200 207 217 218 216 217 216 213 211 207 202 195 187 181 179 185 201 214 251 283 289 292 294 294 294 294 292 288 283 279 281 286 288 287 285 284 283 283 284 286 288 287 286 286 286 287 289 290 290 290 290 291 290 292 293 294 295 296 295 295 294 293 294 296 297 296 296 295
276 277 283 286 288 288 274 239 230 227 223 219 211 205 207 208 206 206 210 220 227 227 226 224 222 217 210 204 204 204 201 201 206 211 210 223 261 276 282 287 289 288 286 282 278 276 272 270 274 280 285 286 286 286 286 288 290 291 292 291 292 294 296 297 297 296 297 297 297 295 294 295 295 295 294 294 294 293 292 291 291 292 293 294 293
269 264 265 269 274 281 278 258 244 238 236 234 220 208 209 212 213 213 213 216 226 233 231 228 225 220 214 210 207 208 209 211 217 220 217 223 249 268 278 284 285 284 282 276 269 265 266 268 268 273 280 285 287 288 289 290 292 293 294 295 297 298 300 301 300 300 300 300 300 299 298 299 299 299 298 296 294 292 289 287 286 286 287 288 289
267 260 258 261 263 268 272 266 256 245 239 238 226 211 210 215 219 223 223 220 225 232 235 235 231 223 217 215 212 210 213 214 212 216 226 241 258 272 281 286 286 284 284 283 274 262 258 260 265 270 276 281 285 287 289 291 293 293 293 293 294 295 297 299 300 300 301 301 301 300 299 299 299 299 300 300 299 297 294 290 285 282 281 280 280
264 258 254 254 257 260 263 264 262 256 245 240 234 222 217 220 223 227 233 231 231 234 238 241 240 233 225 222 220 215 211 209 207 218 238 253 261 268 274 279 282 285 287 290 288 274 261 258 261 264 268 275 281 285 288 290 291 292 293 293 294 294 294 295 296 297 299 299 300 300 301 300 300 300 300 301 302 303 301 298 293 287 282 279 277
258 256 251 248 250 253 257 260 261 260 252 243 237 231 228 231 231 231 234 237 240 243 242 242 244 247 244 236 231 224 213 212 221 233 244 252 255 259 264 269 275 281 286 289 292 287 274 266 263 263 264 269 276 282 285 285 286 289 290 292 293 294 294 294 295 296 297 297 297 299 301 302 303 302 303 304 305 304 303 301 298 294 290 286 284
255 253 249 245 245 246 250 254 257 261 262 254 242 234 233 239 244 245 241 242 248 253 251 246 247 256 260 252 246 242 225 222 229 237 245 253 254 255 257 261 265 270 277 281 283 284 282 277 272 268 266 268 272 277 280 281 283 284 286 288 291 293 294 295 296 296 295 295 295 298 301 303 303 303 304 306 306 306 305 303 300 296 293 290 288
257 253 248 244 245 247 250 252 254 257 261 259 246 238 238 241 246 247 243 242 246 249 249 244 242 251 260 252 242 230 222 224 228 235 242 246 249 252 255 260 265 269 274 278 280 280 280 280 278 275 272 271 272 274 277 279 280 281 283 286 289 291 294 296 297 296 293 292 295 299 301 302 302 302 304 305 305 304 304 303 300 297 294 292 290
257 254 251 248 247 248 251 252 250 248 248 248 242 236 235 235 235 235 233 231 232 231 223 219 226 232 216 199 197 207 218 221 224 231 238 244 249 253 257 263 268 272 275 277 279 281 281 280 279 277 275 274 274 275 277 279 281 281 283 286 287 290 292 294 295 293 291 292 296 299 300 300 301 301 302 303 302 302 301 300 299 297 296 295 295
264 260 256 253 249 246 247 249 247 243 240 243 245 242 237 232 228 226 229 229 224 221 218 216 220 220 207 199 204 215 220 222 229 238 245 252 257 260 264 268 270 273 275 276 278 280 281 281 280 278 277 276 276 277 278 279 281 282 284 286 288 289 289 288 288 288 288 290 294 297 298 299 300 301 301 301 300 299 299 299 298 297 296 296 296
276 272 266 260 253 248 246 245 242 238 237 242 249 247 239 234 229 226 229 232 226 218 217 219 219 210 203 207 215 219 222 229 238 244 250 257 265 270 273 274 274 276 277 278 279 279 280 280 280 280 279 278 278 278 279 280 281 282 283 284 286 286 286 284 284 284 286 289 293 296 297 299 300 300 300 300 299 299 299 299 298 297 296 296 296
281 278 274 270 265 259 253 246 239 236 238 244 250 245 236 233 232 229 229 229 225 221 220 222 216 208 209 216 218 217 222 231 238 244 252 261 268 272 273 273 274 275 276 276 277 278 278 279 280 280 280 280 279 279 279 279 280 281 282 283 283 284 284 283 283 284 288 292 296 297 298 299 300 300 300 300 299 299 299 299 299 297 296 296 295
280 276 275 275 273 269 261 250 240 237 237 241 245 242 234 230 229 229 229 229 229 228 227 225 218 214 217 221 219 220 226 233 239 247 255 262 267 269 271 274 276 277 277 276 275 275 275 276 277 278 279 280 280 279 279 279 280 281 282 282 283 284 284 284 285 287 291 293 296 297 298 299 299 299 300 300 300 300 300 299 299 297 296 295 294
278 277 279 279 276 271 263 251 242 238 237 236 236 234 229 227 227 228 229 232 233 231 228 227 224 222 223 223 224 229 234 238 243 250 256 262 266 269 273 277 279 280 280 280 278 277 277 277 277 278 279 280 280 280 279 279 279 280 281 282 282 283 284 285 286 288 290 292 294 296 296 297 298 299 299 299 299 299 299 298 297 296 295 294 294
276 277 279 277 274 269 260 249 240 236 235 231 227 228 228 227 227 230 231 233 234 232 227 223 221 222 225 228 231 235 238 241 247 253 259 264 268 272 276 278 280 281 281 280 280 279 279 279 279 279 280 280 280 279 279 279 280 280 281 281 282 283 284 285 287 288 290 292 294 295 296 297 298 298 298 298 298 298 298 298 298 297 296 295 295
273 275 273 271 270 267 261 252 242 236 233 229 224 225 228 229 229 231 233 234 234 231 227 224 222 224 227 229 232 236 240 246 253 258 263 267 270 273 276 278 279 281 281 281 280 280 280 280 279 279 279 279 278 278 278 278 278 279 280 282 283 284 286 287 289 291 293 294 295 296 298 299 299 299 299 299 299 300 300 300 299 297 296 295 295
272 274 271 268 265 264 261 256 248 239 231 226 223 225 230 232 233 233 234 235 234 231 228 227 226 228 230 232 235 240 247 253 258 262 265 267 270 272 274 277 279 281 281 280 280 280 280 280 280 279 279 278 278 278 278 279 280 281 282 283 284 285 287 289 291 292 294 294 295 296 297 298 299 299 300 300 300 300 300 299 298 297 296 296 296
268 269 270 269 266 261 257 254 251 244 234 225 221 224 228 231 232 233 234 236 236 233 231 230 230 231 234 238 242 247 253 257 260 262 264 266 269 272 275 278 280 280 280 280 280 280 281 281 281 281 280 280 280 280 281 282 282 283 284 284 285 286 287 288 290 291 292 293 294 295 296 297 298 299 299 298 298 298 298 297 296 296 296 296 296
263 261 262 264 263 260 255 251 249 247 242 235 229 226 226 227 229 231 233 235 236 235 233 232 232 234 237 241 245 249 253 257 259 262 265 268 272 275 277 279 279 279 279 280 280 281 281 281 281 281 281 281 281 281 282 282 283 283 283 284 284 285 286 287 289 289 290 292 293 294 296 297 298 298 298 298 297 297 297 296 295 295 295 295 295
260 259 257 256 256 257 255 251 250 250 251 249 243 236 231 229 229 230 231 232 234 234 233 232 234 236 238 242 246 250 253 257 261 264 268 271 274 276 277 278 278 278 278 278 279 279 279 280 280 280 280 280 280 280 280 280 280 280 281 282 283 284 286 287 287 288 289 291 292 294 296 297 297 297 297 297 297 296 295 295 294 293 293 293 293
259 257 255 253 252 253 254 255 255 255 255 254 251 247 241 237 234 232 231 231 231 231 231 232 233 236 239 243 248 252 257 262 266 268 271 273 275 277 278 279 278 277 276 276 276 277 278 279 279 279 279 278 278 278 278 279 279 280 281 282 283 284 286 286 287 289 290 291 292 294 295 295 296 296 296 295 295 294 294 293 292 292 292 291 292
258 256 254 252 251 250 252 254 257 257 256 254 253 250 247 244 240 236 232 230 229 228 229 231 234 238 243 248 252 258 264 269 271 272 275 277 278 279 279 278 277 276 275 275 275 276 277 278 278 278 277 278 278 279 280 281 282 284 285 286 286 286 287 287 288 289 290 291 292 293 293 294 294 294 294 294 293 293 293 292 292 292 292 292 291
255 253 251 251 249 248 249 251 252 253 253 254 253 250 248 247 245 242 239 236 232 229 229 232 236 241 247 252 258 264 270 274 276 279 281 281 280 279 278 277 276 275 274 274 275 276 277 277 277 277 278 279 280 281 283 285 287 288 289 289 288 288 287 288 288 289 290 291 292 293 294 294 294 294 293 293 293 294 294 294 294 294 294 293 292
256 253 250 248 247 246 246 246 245 245 247 249 248 246 246 247 247 248 249 246 241 236 235 238 242 247 251 255 260 266 270 275 279 282 283 281 279 278 277 276 275 274 274 274 275 276 276 276 276 277 278 280 282 284 286 288 290 290 290 288 288 287 287 288 288 289 291 292 293 294 294 294 294 294 294 295 297 297 298 298 298 297 296 295 293
257 256 253 249 245 244 243 243 241 240 242 243 242 240 241 243 243 245 247 248 247 245 243 242 245 248 253 257 261 266 272 277 281 283 283 281 280 279 278 277 276 275 275 275 275 275 275 276 278 279 280 282 284 286 287 288 288 288 287 287 287 287 288 289 290 292 294 295 295 295 296 296 297 298 299 300 300 301 301 300 300 299 297 296 295
257 256 255 252 248 245 243 242 240 239 238 239 238 238 240 241 241 240 238 236 236 237 236 238 242 248 251 255 261 269 276 282 285 286 285 282 280 279 278 278 279 278 277 276 275 275 276 278 280 281 283 284 285 285 284 284 284 286 287 288 288 289 291 293 294 295 296 296 297 298 299 300 301 302 302 302 302 302 302 301 300 299 298 298 298
259 257 254 253 251 248 245 243 242 240 239 238 237 238 241 243 245 245 241 235 232 233 236 239 243 247 250 255 264 272 278 283 285 286 283 280 279 279 279 280 280 280 278 277 275 277 280 282 283 283 284 284 282 281 282 284 286 288 289 290 292 294 295 296 295 296 297 298 300 302 302 303 304 304 304 304 303 303 303 302 301 301 300 301 303
258 257 255 252 250 249 247 245 243 242 242 241 239 238 239 242 245 248 248 246 244 245 245 246 246 248 252 258 265 271 275 279 281 280 278 277 278 279 280 280 280 279 278 277 278 280 283 283 283 282 282 280 279 280 284 287 289 291 293 295 296 295 295 295 297 299 301 303 304 305 305 306 306 306 306 305 304 304 303 303 302 302 303 306 309
256 255 254 252 249 247 246 245 244 243 243 244 243 242 240 241 242 244 247 248 249 249 248 247 247 249 253 257 263 267 271 275 276 275 276 277 278 279 279 279 279 278 278 279 281 283 284 283 282 280 278 279 281 285 288 290 293 295 295 294 294 294 296 299 302 304 305 306 307 308 309 308 308 307 307 305 304 304 304 303 302 304 309 314 317
255 254 252 250 248 246 245 244 243 242 242 242 244 244 243 241 240 241 243 245 246 248 249 249 249 248 249 252 258 264 268 272 275 277 278 278 279 278 277 276 276 277 279 281 283 281 278 276 275 275 277 281 285 289 293 295 295 294 292 292 295 299 303 305 307 307 309 310 312 313 312 311 310 308 307 306 305 304 303 304 307 312 315 318 321
255 253 252 251 249 247 246 244 243 241 239 239 241 243 243 241 240 239 238 238 240 241 241 241 241 240 241 247 254 261 268 274 278 279 279 278 278 277 275 274 275 276 278 280 277 270 264 264 271 276 281 285 290 293 295 294 292 291 293 298 303 306 307 308 309 311 315 317 318 317 316 315 313 310 308 307 306 305 306 308 311 312 312 316 322
254 254 252 251 250 249 247 245 243 240 238 237 238 239 241 239 237 235 234 234 237 237 234 231 230 231 237 250 260 268 275 280 281 280 278 278 276 274 273 273 273 274 276 273 265 259 261 269 276 281 285 289 291 293 292 290 291 295 300 304 307 308 309 311 315 320 323 323 322 321 320 318 315 312 311 311 311 311 310 308 306 305 309 318 323
254 253 252 251 249 248 246 245 244 241 238 236 236 237 238 237 235 233 230 229 230 230 226 224 226 232 245 259 270 276 281 282 281 279 276 274 273 272 271 271 271 272 270 263 257 262 271 277 279 282 287 289 289 289 288 290 296 301 304 307 309 312 315 320 325 329 329 327 326 326 324 321 318 315 314 315 317 317 316 312 309 310 316 323 325
254 252 251 250 248 245 243 242 241 240 238 236 235 235 236 237 238 237 236 234 234 233 228 226 231 240 251 263 272 278 279 278 276 274 273 270 269 268 267 266 265 263 259 256 260 268 273 275 279 283 285 285 285 287 290 295 300 304 307 310 315 319 325 330 333 334 333 331 331 331 328 324 321 319 319 320 319 318 320 320 318 318 323 326 326
259 255 252 249 246 243 240 238 237 237 236 236 235 234 235 236 238 240 241 241 241 242 243 244 246 251 258 265 272 275 275 273 272 271 270 267 263 261 261 259 256 254 256 262 267 268 268 273 277 279 279 282 285 289 294 298 301 305 310 317 323 328 332 335 335 335 336 336 336 335 332 328 326 326 325 323 319 319 324 328 327 326 327 327 325
267 261 256 251 246 243 240 237 235 234 233 233 233 233 234 235 236 238 239 238 235 235 237 240 244 250 257 264 270 271 270 269 268 266 261 255 253 255 254 250 249 253 261 266 265 264 266 270 271 274 279 284 288 292 296 299 303 308 317 327 333 336 336 335 336 338 340 341 341 339 336 333 331 329 326 323 321 323 328 332 333 331 327 324 326
274 267 261 253 247 243 240 237 235 233 232 231 231 231 232 233 235 237 239 239 239 240 241 239 240 248 258 263 264 264 263 262 259 253 244 241 245 248 246 246 253 261 263 261 260 261 263 263 266 276 283 284 289 295 297 300 307 317 329 340 344 341 337 335 338 343 345 346 346 345 342 338 333 327 324 323 323 324 327 331 335 332 324 322 329
276 267 261 252 244 239 236 234 232 231 229 229 229 229 230 231 232 234 236 238 240 243 245 244 244 250 256 258 256 254 250 245 239 233 231 235 239 239 240 250 261 262 257 255 255 254 254 259 272 278 278 282 292 296 298 308 321 332 342 349 349 343 339 338 340 346 350 351 351 350 349 346 340 332 327 325 324 324 324 328 332 329 321 322 332
295 272 259 246 237 233 230 228 226 224 223 223 225 225 224 225 226 227 228 230 232 234 236 238 241 246 249 249 249 246 240 232 227 226 228 232 235 237 243 254 258 253 246 245 242 238 246 269 271 266 270 284 295 297 309 329 339 344 351 354 350 346 345 344 344 348 352 353 353 354 355 354 350 344 335 330 328 327 326 328 330 328 324 327 332
2 330 282 241 227 220 215 214 214 212 212 213 215 215 215 216 218 220 222 221 219 220 226 231 234 238 241 242 242 239 233 227 225 225 226 230 234 238 244 247 244 237 233 231 227 227 247 255 247 248 269 293 296 307 333 348 350 352 356 356 353 352 351 350 351 352 353 353 354 356 358 360 359 355 347 339 334 332 332 333 330 325 326 329 330
37 45 56 99 177 185 183 188 195 196 197 200 201 201 204 207 207 210 218 217 211 208 214 221 224 228 232 232 230 228 225 220 219 221 226 230 231 231 232 232 229 225 221 219 220 224 229 231 231 238 282 294 300 326 351 358 358 0 359 358 358 358 356 355 356 356 355 354 355 357 359 2 5 4 358 351 344 339 338 338 332 324 325 330 329
50 60 73 94 123 143 150 155 162 168 175 183 188 190 193 194 192 195 207 208 200 196 201 210 215 216 214 212 213 214 211 208 214 222 226 224 217 216 223 228 225 220 219 219 217 216 218 222 223 227 294 297 315 343 359 3 4 2 359 359 2 2 360 360 1 0 359 359 360 359 1 3 6 7 5 1 355 349 343 340 337 330 325 327 330
53 63 78 97 113 120 126 133 141 151 159 165 172 176 176 176 181 188 193 191 187 187 194 204 208 204 196 195 201 204 204 210 221 225 217 207 206 215 225 226 221 220 220 215 209 211 216 217 211 340 309 312 332 349 358 2 3 359 356 359 3 3 3 3 3 3 3 3 4 4 4 5 6 7 7 5 2 357 350 343 339 334 326 322 324
55 62 72 87 100 107 112 117 124 136 147 155 162 166 167 169 175 180 183 185 191 196 197 196 194 189 182 185 197 206 212 218 221 213 202 204 216 222 220 218 219 221 216 207 208 213 214 209 47 330 318 328 340 347 353 358 358 356 355 358 0 1 2 3 5 5 6 6 7 7 7 7 8 8 8 6 4 2 357 350 342 335 327 321 319
62 66 72 82 94 103 107 109 112 117 125 135 145 154 161 167 171 174 178 186 194 195 187 181 181 182 186 194 204 211 212 209 204 200 205 217 220 215 212 214 217 216 211 210 214 215 207 196 322 323 330 336 339 345 350 354 353 352 353 355 356 357 358 1 4 6 7 8 9 9 9 9 10 9 8 7 5 3 1 357 351 341 331 325 323
63 67 72 77 85 95 103 111 120 125 128 133 140 148 156 162 165 168 171 174 174 172 172 175 182 189 194 198 201 200 194 191 194 205 215 216 210 205 205 206 206 206 210 215 218 215 206 271 328 339 340 338 341 346 349 349 348 348 350 353 353 352 353 356 1 5 7 9 9 9 10 11 11 10 9 8 7 4 2 360 357 352 342 330 324
62 66 69 73 78 83 89 96 105 114 119 124 130 137 142 146 148 151 154 157 160 164 172 180 187 188 185 183 182 182 184 190 200 208 210 206 200 196 195 195 197 201 208 215 219 228 275 325 343 344 340 340 345 348 346 344 343 344 347 350 351 350 350 352 356 1 5 8 9 9 10 11 12 11 10 9 8 6 3 1 0 360 356 346 336
62 66 70 73 77 80 84 88 93 98 103 108 112 118 124 130 135 140 146 153 159 166 171 174 174 173 171 173 179 185 192 197 199 198 195 191 188 186 187 191 197 203 211 223 245 294 323 335 340 340 340 343 347 347 345 343 340 341 344 348 349 348 348 350 354 358 1 4 6 7 9 10 11 11 11 11 10 8 6 3 2 2 2 359 352
Height
3115 3116 3114 3113 3114 3115 3116 3117 3119 3121 3123 3124 3125 3126 3127 3129 3130 3132 3133 3133 3133 3134 3134 3135 3135 3136 3137 3137 3138 3139 3140 3140 3140 3141 3141 3141 3142 3142 3142 3142 3142 3142 3142 3142 3142 3143 3143 3143 3143 3143 3143 3143 3143 3143 3142 3142 3142 3142 3142 3142 3142 3142 3142 3142 3141 3140 3140 3139 3139 3139 3138 3138 3137 3136 3135 3134 3133 3132 3132 3131 3130 3129 3129 3129 3128
3114 3114 3113 3112 3113 3114 3116 3117 3118 3119 3122 3124 3125 3126 3126 3127 3128 3130 3132 3133 3133 3134 3134 3134 3135 3135 3136 3137 3137 3138 3139 3139 3139 3140 3140 3140 3140 3141 3141 3141 3141 3141 3141 3141 3141 3142 3142 3142 3142 3142 3142 3142 3142 3142 3141 3141 3141 3141 3141 3141 3141 3141 3141 3141 3141 3140 3139 3138 3138 3137 3137 3137 3136 3135 3135 3134 3133 3132 3131 3130 3129 3128 3127 3126 3126
3112 3112 3112 3111 3111 3113 3115 3116 3116 3117 3120 3122 3124 3125 3126 3126 3127 3129 3131 3132 3132 3132 3133 3133 3134 3134 3135 3135 3135 3136 3136 3137 3137 3138 3138 3139 3139 3139 3139 3139 3139 3139 3139 3140 3140 3140 3140 3140 3140 3141 3140 3140 3140 3140 3140 3140 3140 3140 3139 3139 3139 3139 3139 3139 3139 3139 3138 3137 3136 3136 3135 3135 3135 3134 3133 3133 3132 3131 3130 3128 3127 3126 3125 3125 3124
3110 3110 3110 3109 3109 3111 3113 3114 3115 3116 3118 3120 3121 3123 3125 3125 3125 3127 3129 3130 3130 3131 3131 3132 3132 3133 3134 3133 3133 3133 3133 3134 3134 3135 3135 3136 3137 3137 3138 3138 3138 3137 3137 3138 3138 3138 3138 3138 3138 3139 3139 3139 3139 3138 3138 3138 3138 3138 3138 3137 3137 3137 3137 3137 3136 3136 3136 3135 3134 3134 3133 3133 3132 3132 3132 3131 3130 3129 3128 3127 3126 3125 3124 3123 3122
3108 3108 3108 3108 3107 3109 3111 3112 3112 3113 3115 3118 3119 3121 3123 3124 3124 3125 3126 3128 3129 3129 3130 3130 3131 3131 3132 3132 3132 3132 3132 3132 3132 3133 3133 3134 3135 3136 3136 3136 3136 3136 3136 3135 3136 3136 3136 3136 3136 3137 3137 3137 3137 3137 3136 3136 3136 3136 3136 3135 3135 3134 3134 3134 3134 3133 3133 3133 3132 3131 3131 3130 3129 3129 3129 3128 3128 3127 3126 3125 3125 3124 3122 3121 3120
3106 3106 3107 3106 3106 3107 3108 3109 3109 3110 3112 3115 3116 3117 3119 3121 3122 3122 3123 3125 3127 3127 3128 3128 3128 3129 3129 3129 3129 3130 3130 3130 3131 3132 3132 3131 3132 3133 3134 3135 3135 3134 3134 3134 3134 3134 3134 3134 3134 3135 3135 3135 3135 3135 3135 3135 3135 3134 3134 3133 3132 3132 3131 3131 3130 3130 3130 3129 3129 3128 3128 3127 3126 3125 3125 3125 3125 3125 3124 3123 3122 3121 3120 3119 3118
3105 3105 3105 3105 3105 3105 3106 3107 3107 3108 3109 3111 3112 3114 3116 3118 3118 3119 3121 3122 3123 3124 3125 3125 3125 3125 3125 3125 3126 3126 3127 3127 3128 3129 3130 3130 3130 3131 3132 3132 3133 3133 3132 3132 3132 3132 3132 3133 3133 3133 3133 3133 3133 3133 3133 3133 3132 3132 3132 3131 3130 3130 3129 3128 3127 3127 3126 3126 3125 3125 3124 3124 3123 3122 3121 3121 3120 3120 3120 3120 3120 3119 3118 3117 3116
3103 3103 3103 3103 3103 3103 3104 3104 3104 3105 3107 3107 3108 3111 3113 3114 3115 3117 3118 3119 3120 3120 3121 3121 3121 3121 3121 3122 3123 3124 3124 3124 3126 3127 3128 3128 3128 3129 3130 3130 3130 3131 3131 3131 3130 3130 3131 3131 3132 3132 3131 3131 3131 3131 3131 3130 3130 3129 3128 3128 3127 3127 3126 3126 3125 3124 3123 3122 3122 3121 3120 3120 3120 3119 3118 3118 3117 3116 3116 3115 3116 3115 3115 3114 3113
3101 3101 3101 3101 3101 3102 3102 3102 3103 3103 3104 3104 3105 3108 3110 3111 3112 3114 3116 3116 3117 3117 3117 3117 3117 3118 3118 3119 3120 3121 3121 3122 3124 3125 3125 3126 3126 3127 3128 3128 3128 3129 3129 3129 3129 3129 3129 3129 3129 3130 3129 3129 3129 3128 3128 3128 3127 3126 3125 3125 3124 3123 3123 3122 3122 3121 3120 3119 3118 3117 3117 3116 3116 3115 3115 3114 3113 3113 3112 3111 3110 3110 3110 3110 3109
3099 3099 3099 3099 3099 3100 3100 3100 3101 3101 3101 3102 3103 3104 3105 3107 3110 3112 3113 3113 3113 3113 3113 3113 3115 3116 3116 3116 3118 3119 3119 3121 3122 3123 3123 3123 3124 3125 3125 3126 3126 3126 3126 3126 3126 3126 3126 3126 3127 3127 3127 3126 3126 3126 3125 3125 3125 3123 3122 3121 3121 3119 3118 3118 3118 3117 3116 3115 3114 3114 3113 3113 3112 3111 3111 3110 3109 3108 3108 3107 3106 3105 3104 3104 3104
3096 3097 3097 3097 3098 3098 3098 3098 3098 3098 3099 3100 3101 3101 3101 3104 3107 3108 3109 3109 3109 3109 3109 3111 3112 3113 3113 3114 3115 3117 3118 3119 3120 3120 3121 3121 3122 3122 3123 3123 3123 3123 3123 3124 3124 3124 3124 3124 3124 3124 3124 3123 3123 3123 3122 3122 3121 3120 3119 3118 3117 3116 3115 3114 3114 3113 3112 3111 3111 3111 3110 3109 3108 3107 3107 3106 3105 3104 3103 3102 3100 3099 3099 3098 3099
3094 3095 3095 3096 3096 3096 3095 3095 3094 3095 3096 3097 3098 3098 3099 3101 3103 3104 3106 3106 3106 3106 3108 3109 3110 3110 3111 3112 3113 3115 3116 3117 3118 3118 3119 3119 3119 3120 3120 3120 3120 3120 3120 3120 3120 3121 3121 3121 3121 3120 3120 3120 3120 3119 3118 3118 3117 3117 3116 3115 3113 3112 3112 3111 3110 3108 3107 3106 3107 3107 3106 3105 3104 3103 3102 3102 3101 3099 3098 3097 3095 3094 3094 3093 3092
3093 3093 3093 3094 3094 3094 3094 3093 3092 3092 3093 3095 3096 3097 3098 3099 3101 3102 3103 3104 3104 3105 3106 3107 3108 3108 3109 3110 3111 3112 3113 3114 3115 3116 3116 3116 3117 3117 3118 3118 3118 3117 3117 3117 3117 3117 3117 3117 3117 3117 3117 3117 3116 3116 3115 3114 3114 3113 3112 3111 3110 3109 3108 3107 3106 3104 3102 3102 3103 3102 3101 3100 3099 3098 3097 3096 3095 3094 3093 3092 3091 3090 3089 3088 3087
3090 3091 3091 3092 3092 3092 3092 3091 3091 3091 3092 3093 3093 3095 3096 3097 3097 3098 3100 3101 3101 3103 3104 3105 3105 3106 3107 3109 3110 3110 3111 3111 3112 3113 3113 3114 3114 3115 3115 3115 3115 3115 3115 3114 3114 3114 3114 3114 3114 3114 3113 3113 3112 3112 3111 3111 3110 3109 3108 3107 3106 3105 3104 3103 3102 3100 3098 3099 3099 3098 3097 3096 3095 3094 3092 3091 3090 3089 3088 3087 3086 3085 3084 3083 3083
3086 3087 3088 3089 3090 3090 3090 3090 3089 3089 3090 3090 3090 3091 3093 3093 3094 3095 3097 3098 3099 3101 3101 3102 3103 3104 3105 3107 3107 3108 3108 3109 3110 3110 3110 3111 3111 3112 3112 3113 3113 3113 3112 3112 3112 3112 3111 3111 3111 3110 3110 3109 3109 3108 3107 3107 3106 3105 3104 3104 3102 3101 3100 3099 3098 3096 3095 3094 3094 3094 3092 3092 3090 3089 3087 3086 3084 3083 3082 3081 3080 3079 3078 3077 3077
3082 3083 3085 3085 3086 3086 3087 3087 3087 3087 3087 3088 3088 3088 3090 3091 3092 3093 3094 3095 3097 3098 3099 3100 3101 3102 3103 3104 3105 3105 3106 3107 3107 3108 3108 3108 3109 3109 3109 3110 3110 3110 3110 3109 3109 3109 3109 3108 3107 3107 3106 3105 3105 3104 3104 3103 3102 3102 3101 3100 3098 3097 3096 3095 3094 3093 3091 3090 3089 3089 3087 3086 3085 3084 3082 3081 3079 3078 3076 3075 3074 3072 3071 3071 3071
3080 3080 3081 3082 3082 3083 3083 3083 3083 3083 3084 3085 3085 3085 3086 3088 3089 3090 3091 3093 3094 3095 3096 3097 3098 3099 3100 3101 3102 3103 3103 3104 3105 3105 3105 3106 3106 3106 3106 3106 3106 3106 3106 3106 3105 3105 3105 3104 3104 3103 3102 3102 3101 3100 3100 3099 3099 3098 3097 3096 3095 3094 3093 3091 3090 3089 3088 3086 3085 3084 3083 3082 3080 3079 3078 3076 3074 3072 3071 3069 3068 3067 3065 3064 3063
3077 3077 3078 3078 3078 3079 3080 3080 3080 3081 3081 3082 3083 3083 3084 3085 3086 3087 3089 3090 3091 3092 3093 3094 3095 3096 3097 3098 3099 3100 3101 3101 3102 3102 3102 3103 3103 3103 3103 3103 3103 3102 3102 3102 3102 3101 3101 3100 3100 3099 3099 3098 3097 3097 3096 3096 3095 3094 3093 3092 3091 3090 3089 3088 3086 3085 3084 3083 3081 3080 3079 3077 3076 3074 3073 3071 3069 3067 3065 3063 3062 3060 3059 3057 3056
3074 3074 3075 3075 3075 3076 3077 3077 3077 3077 3078 3078 3079 3080 3082 3082 3083 3084 3085 3086 3087 3088 3089 3091 3092 3093 3094 3095 3096 3097 3097 3098 3098 3099 3099 3099 3100 3100 3099 3099 3099 3099 3098 3098 3098 3097 3097 3096 3096 3096 3095 3095 3094 3093 3092 3092 3091 3090 3089 3088 3087 3085 3084 3083 3081 3080 3079 3078 3076 3075 3073 3072 3070 3069 3067 3066 3064 3062 3060 3058 3056 3054 3052 3051 3050
3070 3071 3071 3072 3073 3073 3074 3074 3074 3074 3074 3075 3076 3077 3078 3079 3080 3081 3082 3082 3083 3084 3085 3087 3088 3090 3091 3091 3092 3093 3094 3095 3095 3096 3096 3096 3097 3096 3096 3095 3095 3095 3094 3094 3093 3093 3092 3092 3092 3091 3091 3090 3090 3089 3088 3087 3086 3085 3084 3083 3082 3080 3079 3078 3077 3075 3074 3073 3071 3070 3068 3067 3065 3064 3062 3060 3059 3057 3055 3053 3051 3048 3046 3045 3044
3067 3067 3067 3068 3069 3070 3071 3071 3071 3072 3071 3072 3073 3074 3074 3075 3076 3078 3079 3079 3081 3082 3082 3083 3085 3086 3087 3088 3089 3090 3091 3092 3093 3093 3093 3093 3093 3093 3092 3092 3091 3091 3090 3089 3089 3088 3088 3087 3087 3086 3086 3085 3085 3084 3083 3083 3082 3081 3079 3078 3077 3076 3075 3074 3072 3071 3069 3068 3067 3065 3064 3062 3061 3059 3057 3056 3054 3052 3051 3049 3046 3044 3041 3039 3038
3062 3062 3063 3063 3064 3066 3067 3068 3069 3069 3069 3070 3070 3071 3072 3072 3073 3075 3076 3077 3078 3079 3080 3080 3081 3083 3084 3086 3087 3088 3088 3089 3089 3089 3089 3089 3089 3089 3088 3088 3087 3087 3086 3085 3085 3084 3083 3083 3082 3082 3081 3080 3080 3079 3079 3078 3077 3076 3075 3073 3072 3071 3070 3069 3067 3066 3065 3063 3062 3060 3059 3057 3055 3054 3052 3051 3049 3047 3045 3043 3041 3039 3037 3034 3032
3056 3057 3058 3059 3060 3061 3062 3064 3065 3066 3066 3067 3068 3069 3069 3070 3070 3071 3072 3073 3075 3076 3077 3077 3078 3080 3081 3082 3083 3084 3085 3085 3085 3085 3086 3085 3085 3085 3084 3084 3083 3083 3082 3081 3081 3080 3079 3078 3078 3077 3077 3076 3075 3074 3074 3073 3072 3071 3070 3068 3067 3066 3065 3064 3062 3061 3060 3058 3057 3055 3054 3052 3050 3049 3047 3045 3043 3042 3040 3038 3036 3034 3031 3029 3027
3051 3052 3053 3054 3055 3055 3057 3058 3059 3060 3061 3063 3064 3065 3065 3066 3066 3067 3068 3069 3070 3072 3073 3074 3075 3076 3077 3078 3079 3079 3080 3081 3081 3081 3081 3081 3081 3080 3080 3079 3079 3078 3078 3077 3076 3075 3075 3074 3073 3073 3072 3071 3070 3069 3068 3067 3066 3065 3064 3063 3062 3061 3060 3059 3057 3056 3055 3053 3052 3050 3049 3047 3045 3043 3041 3039 3038 3036 3034 3032 3030 3028 3025 3024 3022
3043 3045 3046 3047 3049 3050 3051 3051 3052 3053 3055 3056 3057 3059 3060 3061 3061 3062 3063 3064 3065 3066 3068 3069 3070 3071 3072 3073 3074 3075 3075 3076 3076 3076 3076 3076 3076 3076 3075 3075 3074 3074 3073 3072 3072 3071 3070 3070 3069 3068 3067 3066 3065 3063 3062 3062 3061 3060 3059 3058 3057 3056 3055 3054 3052 3051 3050 3048 3047 3045 3044 3042 3040 3038 3036 3034 3032 3030 3028 3025 3023 3021 3019 3017 3015
3034 3036 3038 3040 3042 3043 3044 3045 3046 3047 3048 3050 3051 3052 3054 3055 3055 3056 3057 3058 3059 3060 3062 3063 3065 3066 3067 3069 3070 3070 3071 3071 3071 3071 3071 3071 3071 3071 3071 3070 3070 3070 3069 3068 3067 3067 3066 3065 3064 3063 3062 3061 3060 3059 3058 3057 3056 3055 3054 3053 3052 3051 3050 3049 3048 3046 3045 3043 3042 3040 3038 3036 3034 3032 3030 3028 3025 3023 3021 3018 3016 3014 3012 3009 3007
3024 3026 3029 3031 3033 3035 3037 3038 3040 3041 3043 3044 3044 3046 3047 3049 3050 3051 3052 3053 3053 3054 3056 3058 3060 3061 3063 3064 3065 3066 3066 3066 3066 3066 3066 3066 3066 3066 3066 3066 3066 3066 3065 3064 3063 3062 3061 3060 3059 3058 3057 3056 3055 3055 3054 3053 3052 3051 3050 3049 3048 3047 3046 3045 3043 3042 3040 3039 3037 3035 3033 3031 3028 3026 3024 3021 3019 3016 3014 3011 3008 3006 3004 3001 2999
3015 3017 3019 3022 3024 3026 3028 3031 3033 3035 3036 3038 3038 3039 3041 3042 3043 3044 3046 3048 3049 3050 3052 3054 3055 3057 3058 3059 3060 3061 3061 3061 3061 3061 3061 3062 3062 3062 3062 3062 3062 3061 3060 3060 3059 3058 3056 3055 3055 3054 3053 3052 3052 3051 3050 3049 3048 3047 3046 3045 3044 3043 3042 3040 3039 3037 3035 3033 3031 3029 3027 3025 3022 3020 3017 3015 3012 3010 3007 3004 3001 2999 2996 2994 2991
3008 3009 3011 3013 3015 3018 3020 3022 3025 3027 3029 3031 3033 3034 3036 3037 3037 3039 3040 3041 3043 3045 3046 3048 3050 3052 3053 3054 3055 3056 3056 3056 3056 3057 3057 3057 3057 3057 3057 3057 3056 3056 3055 3055 3054 3053 3052 3051 3050 3050 3049 3049 3048 3047 3046 3045 3044 3044 3043 3042 3041 3039 3038 3036 3035 3033 3031 3029 3026 3024 3021 3019 3016 3013 3011 3008 3006 3004 3001 2998 2995 2992 2990 2987 2985
3000 3002 3004 3005 3008 3010 3012 3014 3016 3019 3021 3023 3026 3028 3030 3031 3033 3035 3036 3037 3038 3040 3041 3043 3044 3046 3048 3050 3050 3051 3051 3052 3052 3052 3053 3053 3053 3052 3052 3052 3051 3051 3051 3050 3049 3049 3048 3047 3047 3046 3045 3045 3044 3043 3043 3042 3041 3041 3040 3038 3037 3036 3034 3032 3031 3029 3027 3024 3022 3019 3016 3013 3010 3007 3005 3002 3000 2997 2995 2992 2989 2987 2984 2982 2981
2992 2994 2996 2998 3000 3003 3005 3006 3008 3010 3012 3015 3018 3021 3023 3025 3027 3030 3032 3033 3034 3035 3036 3038 3040 3042 3044 3045 3046 3046 3047 3048 3048 3048 3049 3049 3048 3048 3047 3047 3047 3046 3046 3046 3045 3045 3044 3043 3043 3042 3042 3041 3041 3040 3040 3039 3039 3038 3036 3035 3034 3032 3031 3029 3027 3025 3022 3020 3017 3014 3011 3007 3004 3002 2999 2996 2994 2992 2990 2987 2985 2983 2981 2979 2978
2985 2987 2989 2991 2993 2995 2997 2999 3001 3003 3005 3008 3010 3013 3016 3018 3021 3024 3026 3027 3029 3031 3032 3034 3036 3038 3039 3040 3041 3042 3043 3043 3044 3044 3044 3044 3044 3044 3043 3043 3042 3042 3042 3041 3041 3040 3040 3040 3039 3039 3038 3038 3038 3038 3037 3037 3036 3035 3034 3032 3031 3029 3027 3025 3023 3021 3018 3015 3012 3009 3006 3002 2999 2996 2994 2991 2989 2987 2986 2984 2982 2980 2979 2977 2976
2978 2980 2982 2984 2986 2988 2990 2993 2995 2997 2999 3002 3004 3006 3009 3012 3015 3018 3020 3021 3023 3026 3028 3030 3032 3033 3035 3036 3037 3038 3039 3039 3040 3040 3040 3040 3040 3039 3039 3038 3038 3038 3038 3037 3037 3037 3037 3036 3036 3036 3036 3036 3035 3035 3035 3034 3033 3032 3031 3029 3028 3026 3024 3022 3019 3017 3014 3011 3007 3004 3001 2998 2994 2992 2990 2988 2986 2984 2982 2981 2979 2978 2977 2975 2974
2970 2972 2975 2977 2979 2982 2984 2986 2989 2991 2993 2996 2998 3001 3004 3006 3009 3012 3014 3015 3018 3021 3023 3025 3027 3029 3030 3032 3033 3034 3035 3035 3036 3036 3036 3036 3036 3035 3035 3035 3035 3035 3034 3034 3034 3034 3034 3034 3034 3033 3033 3033 3033 3033 3032 3031 3030 3029 3028 3026 3025 3023 3021 3019 3016 3013 3010 3007 3003 3000 2997 2993 2990 2988 2986 2985 2983 2981 2980 2978 2977 2976 2974 2973 2972
2963 2965 2968 2970 2972 2975 2978 2980 2982 2985 2987 2990 2993 2996 2999 3002 3004 3007 3009 3011 3014 3016 3018 3020 3022 3024 3026 3027 3029 3030 3031 3031 3031 3032 3032 3032 3032 3032 3032 3032 3032 3032 3031 3031 3031 3031 3031 3032 3031 3031 3031 3031 3031 3030 3030 3029 3027 3026 3025 3024 3022 3020 3018 3016 3013 3010 3007 3003 3000 2996 2993 2990 2987 2985 2983 2982 2980 2979 2977 2976 2974 2973 2972 2971 2970
2956 2958 2960 2963 2965 2968 2971 2973 2976 2978 2981 2984 2988 2991 2994 2997 2999 3002 3004 3007 3010 3012 3014 3016 3018 3020 3022 3023 3025 3026 3026 3027 3027 3028 3028 3028 3028 3029 3029 3029 3029 3029 3029 3029 3029 3029 3030 3029 3029 3029 3029 3029 3029 3028 3027 3026 3025 3024 3023 3022 3020 3018 3016 3013 3010 3007 3003 3000 2996 2993 2990 2987 2984 2982 2981 2980 2978 2976 2974 2973 2972 2971 2970 2968 2967
2950 2951 2953 2955 2958 2960 2963 2966 2969 2972 2975 2978 2982 2985 2988 2991 2994 2997 3000 3003 3005 3008 3010 3012 3014 3016 3018 3019 3021 3022 3023 3023 3024 3024 3024 3025 3025 3026 3026 3026 3026 3026 3026 3027 3027 3028 3027 3027 3027 3027 3027 3027 3027 3026 3025 3024 3023 3022 3021 3019 3017 3015 3013 3009 3006 3004 3001 2997 2994 2990 2987 2984 2982 2980 2979 2977 2975 2974 2972 2971 2970 2969 2967 2966 2964
2945 2946 2948 2949 2951 2953 2956 2959 2962 2966 2969 2972 2976 2979 2982 2986 2989 2993 2996 2999 3001 3003 3006 3009 3011 3012 3014 3015 3017 3018 3019 3020 3020 3021 3021 3022 3022 3023 3023 3024 3024 3024 3025 3025 3025 3025 3025 3025 3025 3026 3026 3025 3025 3024 3023 3023 3022 3021 3019 3017 3015 3012 3010 3007 3005 3002 2999 2995 2992 2988 2985 2982 2980 2978 2977 2975 2973 2971 2970 2969 2967 2966 2965 2964 2962
2941 2942 2943 2944 2946 2948 2951 2954 2957 2960 2964 2967 2970 2974 2977 2981 2985 2988 2992 2996 2998 2999 3001 3005 3007 3009 3011 3012 3013 3014 3016 3017 3017 3018 3018 3019 3020 3020 3021 3021 3022 3023 3023 3023 3023 3023 3023 3024 3024 3024 3024 3024 3023 3022 3022 3021 3020 3019 3018 3016 3013 3010 3008 3006 3004 3001 2997 2994 2990 2986 2983 2980 2978 2976 2975 2973 2971 2970 2968 2967 2966 2964 2963 2962 2960
2937 2938 2939 2940 2942 2944 2946 2949 2952 2955 2959 2962 2966 2969 2973 2977 2981 2984 2988 2992 2994 2996 2999 3001 3004 3006 3007 3008 3010 3011 3013 3014 3014 3015 3015 3016 3017 3018 3018 3019 3020 3021 3021 3021 3021 3021 3022 3022 3022 3022 3022 3022 3021 3021 3021 3020 3019 3017 3015 3013 3011 3009 3007 3005 3002 2999 2996 2992 2989 2985 2982 2979 2977 2975 2973 2972 2970 2968 2966 2965 2964 2963 2962 2960 2959
2935 2935 2936 2937 2938 2940 2942 2945 2948 2951 2955 2958 2962 2965 2969 2973 2977 2981 2984 2987 2991 2994 2996 2999 3001 3002 3004 3005 3007 3008 3010 3011 3011 3012 3013 3014 3015 3015 3016 3017 3018 3018 3018 3019 3019 3020 3020 3020 3021 3021 3020 3020 3020 3020 3019 3018 3017 3015 3013 3011 3009 3008 3006 3003 3001 2998 2994 2991 2988 2985 2981 2978 2975 2973 2972 2970 2968 2966 2965 2964 2962 2961 2960 2959 2957
2933 2934 2934 2935 2936 2938 2940 2943 2945 2948 2952 2955 2959 2963 2967 2971 2974 2977 2980 2983 2987 2990 2993 2995 2998 3000 3001 3003 3004 3005 3007 3008 3009 3010 3011 3012 3013 3014 3015 3015 3016 3016 3017 3017 3018 3018 3018 3019 3019 3019 3019 3019 3019 3019 3018 3017 3015 3013 3011 3010 3008 3007 3005 3002 2999 2997 2994 2991 2988 2984 2981 2978 2975 2972 2970 2968 2966 2965 2963 2962 2961 2960 2959 2958 2956
2934 2933 2933 2933 2935 2937 2940 2942 2944 2947 2950 2954 2957 2961 2964 2968 2971 2974 2978 2980 2984 2987 2990 2993 2995 2997 2999 3000 3002 3003 3004 3005 3006 3007 3009 3010 3011 3012 3012 3013 3014 3014 3015 3015 3016 3017 3017 3018 3018 3018 3017 3018 3018 3017 3016 3015 3014 3012 3010 3009 3007 3006 3003 3001 2998 2995 2993 2990 2988 2984 2981 2977 2974 2971 2969 2967 2965 2963 2962 2961 2959 2958 2957 2956 2955
2936 2934 2933 2934 2936 2938 2941 2943 2945 2947 2950 2953 2956 2959 2963 2966 2969 2973 2976 2978 2981 2985 2988 2991 2993 2995 2997 2998 2999 3000 3001 3003 3004 3006 3007 3008 3009 3010 3011 3011 3012 3013 3013 3014 3015 3016 3016 3016 3016 3016 3016 3017 3016 3016 3015 3014 3012 3011 3009 3008 3006 3005 3002 3000 2997 2995 2992 2990 2987 2984 2981 2977 2974 2971 2968 2966 2964 2962 2960 2959 2958 2957 2956 2955 2954
2940 2939 2937 2938 2939 2941 2943 2944 2946 2948 2951 2953 2956 2959 2962 2965 2969 2972 2974 2977 2980 2984 2987 2989 2991 2993 2995 2996 2997 2998 3000 3001 3003 3004 3005 3006 3007 3008 3009 3010 3011 3011 3012 3013 3014 3015 3015 3015 3015 3015 3015 3015 3015 3014 3013 3012 3011 3009 3008 3007 3005 3003 3001 2999 2996 2994 2991 2989 2986 2983 2980 2977 2973 2970 2968 2965 2963 2961 2959 2958 2957 2956 2955 2954 2953
2945 2944 2943 2943 2943 2945 2946 2947 2948 2950 2952 2954 2957 2960 2963 2966 2969 2972 2974 2977 2980 2983 2985 2987 2989 2991 2992 2994 2996 2997 2999 3000 3001 3002 3004 3005 3006 3007 3008 3008 3009 3010 3011 3012 3013 3013 3013 3013 3013 3014 3014 3014 3013 3012 3011 3010 3009 3008 3007 3005 3004 3002 3000 2998 2996 2993 2991 2988 2985 2983 2980 2976 2973 2970 2967 2965 2962 2960 2958 2957 2956 2954 2953 2952 2951
2950 2949 2948 2948 2948 2949 2950 2951 2952 2953 2954 2956 2958 2961 2964 2967 2970 2972 2975 2977 2980 2982 2984 2986 2988 2990 2991 2993 2995 2996 2997 2999 3000 3001 3003 3004 3005 3006 3007 3008 3009 3010 3011 3011 3012 3012 3012 3012 3012 3012 3012 3012 3011 3011 3010 3009 3008 3007 3006 3004 3002 3001 2999 2997 2995 2993 2990 2987 2985 2982 2979 2976 2973 2970 2968 2965 2962 2960 2958 2956 2954 2953 2952 2951 2950
2955 2954 2954 2953 2953 2954 2954 2955 2956 2957 2958 2959 2960 2963 2965 2968 2970 2973 2975 2978 2980 2982 2984 2986 2988 2990 2991 2993 2994 2995 2997 2998 2999 3000 3002 3003 3004 3005 3006 3007 3008 3009 3010 3010 3010 3011 3011 3011 3011 3011 3011 3011 3010 3010 3009 3008 3007 3006 3005 3003 3001 3000 2998 2997 2995 2992 2990 2987 2984 2982 2979 2976 2973 2971 2968 2965 2962 2960 2958 2955 2953 2952 2951 2949 2948
2960 2959 2959 2958 2958 2958 2958 2959 2959 2960 2961 2962 2964 2966 2968 2970 2972 2974 2976 2979 2980 2982 2984 2986 2988 2989 2991 2992 2993 2995 2996 2997 2999 3000 3001 3002 3003 3004 3006 3007 3008 3008 3009 3009 3010 3010 3010 3010 3009 3010 3010 3010 3009 3008 3008 3007 3006 3005 3004 3002 3001 2999 2997 2996 2994 2992 2989 2987 2984 2982 2979 2976 2974 2971 2968 2965 2962 2960 2957 2955 2953 2951 2949 2948 2947
2965 2964 2964 2963 2962 2962 2962 2963 2963 2964 2964 2965 2967 2968 2970 2972 2974 2976 2978 2980 2981 2983 2984 2986 2987 2989 2990 2991 2993 2994 2996 2997 2998 3000 3001 3002 3003 3004 3005 3006 3007 3007 3008 3008 3008 3008 3008 3008 3008 3009 3008 3008 3008 3007 3006 3006 3005 3004 3003 3002 3000 2999 2997 2995 2993 2991 2989 2986 2984 2982 2979 2976 2974 2971 2969 2966 2963 2960 2958 2955 2953 2951 2949 2947 2946
2970 2969 2968 2967 2967 2967 2967 2967 2967 2968 2968 2969 2970 2972 2973 2974 2976 2977 2979 2980 2982 2983 2984 2986 2987 2989 2990 2991 2993 2994 2995 2997 2998 2999 3001 3002 3003 3004 3005 3005 3006 3006 3007 3007 3007 3007 3007 3007 3007 3007 3007 3007 3006 3006 3005 3005 3004 3003 3002 3001 3000 2998 2997 2995 2993 2991 2988 2986 2984 2981 2979 2976 2974 2971 2969 2966 2964 2961 2958 2955 2953 2951 2948 2947 2945